Location: Hope
(40.9110°N, 74.9680°W)
Time: 02:35:35
(UTC-04:00)

ISS - Visible Passes

Search period start: 27 April 2018 00:00
Search period end: 07 May 2018 00:00
Orbit: 402 x 407 km, 51.6° (Epoch: 27 April)

Date Brightness Start Highest point End Pass type
(mag) Time Alt. Az. Time Alt. Az. Time Alt. Az.
02 May -1.9 04:38:25 14° S 04:40:25 23° SE 04:43:03 10° E visible
03 May -1.2 03:48:16 12° SE 03:48:18 12° SE 03:49:38 10° ESE visible
03 May -3.8 05:21:06 10° WSW 05:24:21 74° NW 05:27:37 10° NE visible
04 May -3.5 04:30:39 29° SSW 04:32:03 56° SE 04:35:15 10° ENE visible
05 May -2.2 03:40:20 27° ESE 03:40:20 27° ESE 03:42:40 10° ENE visible
05 May -2.7 05:13:11 10° W 05:16:13 34° NNW 05:19:15 10° NE visible
06 May -3.6 04:22:34 33° W 04:23:46 59° NNW 04:27:00 10° NE visible
